Petersburg, AK

1:25 PM AKDT on June 26, 2017 (GMT -0800)
Johnson Petersburg

Weather History for PAPG - June, 2013

Change the Weather History Date:

Thursday, June 27, 2013

  Actual Average Record
Temperature  
Mean Temperature 58 °F -  
Max Temperature 64 °F 59 °F 71 °F (1986)
Min Temperature 53 °F 46 °F 41 °F (1988)
Degree Days  
Heating Degree Days 6    
Growing Degree Days 8 (Base 50)    
Moisture  
Dew Point 50 °F    
Average Humidity 73    
Maximum Humidity 94    
Minimum Humidity 55    
Precipitation  
Precipitation 0.00 in - - ()
Sea Level Pressure  
Sea Level Pressure 30.08 in    
Wind  
Wind Speed 3 mph (ENE)    
Max Wind Speed 8 mph    
Max Gust Speed -    
Visibility 10 miles    
Events      
Averages and records for this station are not official NWS values.
T = Trace of Precipitation, MM = Missing Value Source: NWS Daily Summary

Daily Weather History Graph

Daily Weather History Graph

Search for Another Location

Airport or City:

Trip Planner

Search our weather history database for the weather conditions in past years. The results will help you decide how hot, cold, wet, or windy it might be!

Date:

Astronomy

Jun. 27, 2013 Rise Set
Actual Time 4:01 AM AKDT 9:48 PM AKDT
Civil Twilight 2:54 AM AKDT 10:54 PM AKDT
Nautical Twilight 1:27 AM AKDT 12:22 AM AKDT
Astronomical Twilight Sun does not set Sun does not set
Moon 11:32 PM AKDT (6/27) 10:19 AM AKDT (6/27)
Length of Visible Light 19h 59m
Length of Day
17h 46m
Waning Gibbous, 75% of the Moon is Illuminated
Jun 27
Waning Gibbous
Jun 29
Last Quarter
Jul 7
New
Jul 15
First Quarter
Jul 22
Full

Hourly Weather History & Observations

Time (AKDT) Temp. Dew Point Humidity Pressure Visibility Wind Dir Wind Speed Gust Speed Precip Events Conditions
12:16 AM 55.4 °F 51.8 °F 88% 29.99 in 10.0 mi Calm Calm - N/A   Overcast
12:36 AM 55.4 °F 51.8 °F 88% 30.00 in 10.0 mi Calm Calm - N/A   Overcast
1:16 AM 55.4 °F 53.6 °F 94% 30.00 in 10.0 mi Calm Calm - N/A   Overcast
1:36 AM 55.4 °F 51.8 °F 88% 30.01 in 10.0 mi Calm Calm - N/A   Overcast
3:36 AM 55.4 °F 51.8 °F 88% 30.02 in 10.0 mi Calm Calm - N/A   Overcast
4:16 AM 53.6 °F 51.8 °F 94% 30.03 in 10.0 mi Calm Calm - N/A   Overcast
4:36 AM 53.6 °F 51.8 °F 94% 30.03 in 10.0 mi Calm Calm - N/A   Overcast
5:16 AM 53.6 °F 51.8 °F 94% 30.03 in 10.0 mi Calm Calm - N/A   Overcast
5:36 AM 53.6 °F 50.0 °F 88% 30.04 in 10.0 mi ENE 4.6 mph - N/A   Overcast
5:56 AM 53.6 °F 48.2 °F 82% 30.05 in 10.0 mi East 3.5 mph - N/A   Overcast
6:56 AM 53.6 °F 51.8 °F 94% 30.06 in 10.0 mi ESE 3.5 mph - N/A   Mostly Cloudy
7:36 AM 55.4 °F 51.8 °F 88% 30.06 in 10.0 mi Calm Calm - N/A   Mostly Cloudy
8:07 AM 55.4 °F 51.8 °F 88% 30.07 in 10.0 mi Calm Calm - N/A   Mostly Cloudy
8:16 AM 55.4 °F 51.8 °F 88% 30.07 in 10.0 mi East 4.6 mph - N/A   Mostly Cloudy
8:56 AM 55.4 °F 51.8 °F 88% 30.08 in 10.0 mi East 4.6 mph - N/A   Mostly Cloudy
9:36 AM 57.2 °F 51.8 °F 82% 30.08 in 10.0 mi East 4.6 mph - N/A   Mostly Cloudy
9:56 AM - - N/A% 30.08 in - Calm Calm - N/A   Unknown
10:02 AM 59.0 °F 51.8 °F 77% 30.09 in 10.0 mi NNE 4.6 mph - N/A   Scattered Clouds
10:56 AM 60.8 °F 51.8 °F 72% 30.08 in 10.0 mi NE 5.8 mph - N/A   Scattered Clouds
11:16 AM 59.0 °F 48.2 °F 67% 30.09 in 10.0 mi NE 4.6 mph - N/A   Scattered Clouds
11:36 AM 60.8 °F 50.0 °F 68% 30.09 in 10.0 mi East 5.8 mph - N/A   Scattered Clouds
12:36 PM 62.6 °F 48.2 °F 59% 30.09 in 10.0 mi ENE 4.6 mph - N/A   Scattered Clouds
12:47 PM 62.6 °F 50.0 °F 63% 30.09 in 10.0 mi North 4.6 mph - N/A   Scattered Clouds
12:56 PM 62.6 °F 50.0 °F 63% 30.09 in 10.0 mi ENE 6.9 mph - N/A   Scattered Clouds
1:36 PM 64.4 °F 48.2 °F 56% 30.09 in 10.0 mi NE 5.8 mph - N/A   Scattered Clouds
1:56 PM 64.4 °F 51.8 °F 64% 30.10 in 10.0 mi ENE 5.8 mph - N/A   Scattered Clouds
2:16 PM 64.4 °F 48.2 °F 56% 30.10 in 10.0 mi NE 6.9 mph - N/A   Scattered Clouds
2:56 PM 64.4 °F 48.2 °F 56% 30.10 in 10.0 mi ENE 5.8 mph - N/A   Mostly Cloudy
3:36 PM 64.4 °F 50.0 °F 59% 30.09 in 10.0 mi NE 8.1 mph - N/A   Mostly Cloudy
3:56 PM 62.6 °F 51.8 °F 68% 30.10 in 10.0 mi East 5.8 mph - N/A   Mostly Cloudy
4:16 PM 60.8 °F 50.0 °F 68% 30.10 in 10.0 mi ENE 6.9 mph - N/A   Mostly Cloudy
5:16 PM 64.4 °F 48.2 °F 56% 30.10 in 10.0 mi NE 6.9 mph - N/A   Mostly Cloudy
5:36 PM 60.8 °F 48.2 °F 63% 30.10 in 10.0 mi ENE 8.1 mph - N/A   Mostly Cloudy
5:56 PM 62.6 °F 48.2 °F 59% 30.10 in 10.0 mi NNE 3.5 mph - N/A   Mostly Cloudy
6:16 PM 62.6 °F 48.2 °F 59% 30.10 in 10.0 mi ENE 5.8 mph - N/A   Mostly Cloudy
6:56 PM 62.6 °F 48.2 °F 59% 30.10 in 10.0 mi ENE 4.6 mph - N/A   Scattered Clouds
7:16 PM 62.6 °F 46.4 °F 55% 30.10 in 10.0 mi ENE 4.6 mph - N/A   Scattered Clouds
7:36 PM 60.8 °F 48.2 °F 63% 30.11 in 10.0 mi East 4.6 mph - N/A   Scattered Clouds
7:56 PM 59.0 °F 48.2 °F 67% 30.11 in 10.0 mi East 4.6 mph - N/A   Partly Cloudy
8:16 PM 59.0 °F 48.2 °F 67% 30.11 in 10.0 mi East 4.6 mph - N/A   Partly Cloudy
8:36 PM 59.0 °F 46.4 °F 63% 30.11 in 10.0 mi East 5.8 mph - N/A   Partly Cloudy
8:56 PM 57.2 °F 46.4 °F 67% 30.12 in 10.0 mi East 4.6 mph - N/A   Partly Cloudy
9:16 PM 57.2 °F 46.4 °F 67% 30.12 in 10.0 mi East 3.5 mph - N/A   Partly Cloudy
10:36 PM 55.4 °F 46.4 °F 72% 30.14 in 10.0 mi ESE 5.8 mph - N/A   Clear
10:56 PM 55.4 °F 46.4 °F 72% 30.14 in 10.0 mi SE 4.6 mph - N/A   Clear
11:16 PM 53.6 °F 46.4 °F 77% 30.14 in 10.0 mi Calm Calm - N/A   Clear